CUTE-1.7+APD II (CO-65)

Last updated on Wed Sep 09 2026 00:03:15 GMT+0000 (Coordinated Universal Time)

1 32785U 08021C 26251.55700772 .00004558 00000+0 28345-3 0 9991 2 32785 97.8365 234.7917 0010474 102.5400 257.7001 15.10117912997775
UTC large
Height (km)
Speed (km/s)
/
Latitude / Longitude
Inclination (degrees)
Orbital Period (minutes)
Azimuth
Elevation
Range (km)
Doppler Factor

Next 0 passes for location: London (51.5072 / 0.1276)

No passes found over London.
CUTE-1.7+APD II (CO-65)